Location: Sydney
(46.1500°N, 60.1670°W)
Time: 22:52:37
(UTC-03:00)

Iridium 90 - Visible Passes

Search period start: 26 September 2016 00:00
Search period end: 06 October 2016 00:00
Orbit: 747 x 750 km, 86.4° (Epoch: 26 September)

Date Brightness Start Highest point End Pass type
(mag) Time Alt. Az. Time Alt. Az. Time Alt. Az.
26 Sep 8.6 20:23:27 10° NW 20:26:29 16° WNW 20:29:30 10° WSW visible
27 Sep 8.7 05:59:13 10° ESE 06:02:08 16° ENE 06:05:03 10° NE visible
27 Sep 7.5 19:40:18 10° NNW 19:44:48 33° W 19:49:18 10° SW visible
29 Sep 8.0 06:13:37 10° SE 06:17:47 26° E 06:21:58 10° NNE visible
29 Sep 8.4 19:56:58 10° NW 20:00:30 19° WNW 20:04:03 10° WSW visible
30 Sep 8.9 05:34:01 10° E 05:36:10 13° ENE 05:38:20 10° NE visible
30 Sep 7.1 19:14:04 10° NNW 19:18:47 40° W 19:23:28 10° SSW visible
01 Oct 9.1 20:14:45 10° WNW 20:16:05 11° WNW 20:17:24 10° W visible
02 Oct 8.2 05:47:58 10° SE 05:51:47 22° E 05:55:38 10° NNE visible
02 Oct 8.2 19:30:34 10° NNW 19:34:31 23° W 19:38:27 10° SW visible
03 Oct 9.1 05:09:32 10° E 05:10:14 10° ENE 05:10:56 10° ENE visible
04 Oct 7.2 06:02:52 10° SSE 06:07:30 38° E 06:12:10 10° NNE visible
04 Oct 8.8 19:47:43 10° NW 19:50:09 14° WNW 19:52:33 10° WSW visible
05 Oct 8.4 05:22:24 10° ESE 05:25:48 18° ENE 05:29:13 10° NE visible
05 Oct 7.9 19:04:14 10° NNW 19:08:31 28° W 19:12:47 10° SW visible
